Volver al catálogo

COSMOS 2074

ActivoNavegaciónPO
NORAD 20577·PAYLOAD·🇷🇺 Russia

Lanzado Apr 20, 1990 desde Plesetsk Cosmodrome

Loading…

Próximos Pases (próximas 24 horas)

TLE

ActualizadoSource: Space-Track

Época: Sep 14, 2026, 19:53 UTC

1 20577U 90036A   26257.82914008  .00000049  00000-0  35318-4 0  9990
2 20577  82.9433  39.7990 0025982 319.9276 207.2823 13.74887770826048

Sigue COSMOS 2074 en tiempo real con AllMySat

Download on the App Store